Location: Sihaung
(22.8641°N, 94.0549°E)
Time: 02:58:29
(UTC+00:00)

DMSP B5D2-2 - Pass Details

Date: 03 March 2021
Orbit: 789 x 807 km, 98.3° (Epoch: 13 April)

Event Time Altitude Azimuth Distance (km) Brightness Sun altitude
Rises 13:10:28 0° 8° (N) 3,288 7.2 -19.8°
Reaches altitude 10° 13:12:48 10° 6° (N) 2,355 6.5 -20.3°
Maximum altitude 13:17:57 68° 284° (WNW) 848 4.3 -21.5°
Drops below altitude 10° 13:23:05 10° 202° (SSW) 2,342 6.7 -22.7°
Sets 13:25:25 0° 199° (SSW) 3,268 7.5 -23.2°
